Change the Weather History Date:

Wednesday, March 27, 2013

  Actual Average Record
Temperature  
Mean Temperature 30 °F -  
Max Temperature 42 °F 48 °F 73 °F (1968)
Min Temperature 19 °F 27 °F 3 °F (1955)
Degree Days  
Heating Degree Days 34    
Moisture  
Dew Point 25 °F    
Average Humidity 76    
Maximum Humidity 100    
Minimum Humidity 53    
Precipitation  
Precipitation 0.00 in - - ()
Sea Level Pressure  
Sea Level Pressure 30.27 in    
Wind  
Wind Speed 3 mph (SE)    
Max Wind Speed 10 mph    
Max Gust Speed -    
Visibility 10 miles    
Events      
Averages and records for this station are not official NWS values.
T = Trace of Precipitation, MM = Missing Value Source: NWS Daily Summary

Daily Weather History Graph

Daily Weather History Graph

Search for Another Location

Airport or City:

Trip Planner

Search our weather history database for the weather conditions in past years. The results will help you decide how hot, cold, wet, or windy it might be!

Date:

Astronomy

Mar. 27, 2013 Rise Set
Actual Time 7:10 AM CDT 7:41 PM CDT
Civil Twilight 6:41 AM CDT 8:10 PM CDT
Nautical Twilight 6:07 AM CDT 8:44 PM CDT
Astronomical Twilight 5:32 AM CDT 9:20 PM CDT
Moon 8:29 PM CDT (3/27) 7:00 AM CDT (3/27)
Length of Visible Light 13h 29m
Length of Day
12h 31m
Full, 100% of the Moon is Illuminated
Mar 27
Full
Apr 2
Last Quarter
Apr 10
New
Apr 18
First Quarter
Apr 25
Full

Hourly Weather History & Observations

Time (CDT) Temp. Windchill Dew Point Humidity Pressure Visibility Wind Dir Wind Speed Gust Speed Precip Events Conditions
12:12 AM 26.6 °F - 24.8 °F 93% 30.28 in 10.0 mi Calm Calm - N/A   Clear
12:32 AM 26.6 °F - 24.8 °F 93% 30.28 in 10.0 mi Calm Calm - N/A   Clear
12:52 AM 26.6 °F - 23.0 °F 86% 30.28 in 10.0 mi Calm Calm - N/A   Clear
1:12 AM 26.6 °F - 23.0 °F 86% 30.27 in 10.0 mi Calm Calm - N/A   Clear
1:33 AM 24.8 °F - 21.2 °F 86% 30.27 in 10.0 mi Calm Calm - N/A   Clear
1:52 AM 24.8 °F - 21.2 °F 86% 30.27 in 10.0 mi Calm Calm - N/A   Clear
2:13 AM 24.8 °F - 21.2 °F 86% 30.27 in 10.0 mi Calm Calm - N/A   Clear
2:33 AM 24.8 °F - 21.2 °F 86% 30.27 in 10.0 mi Calm Calm - N/A   Clear
2:52 AM 24.8 °F - 21.2 °F 86% 30.27 in 10.0 mi Calm Calm - N/A   Clear
3:13 AM 24.8 °F - 21.2 °F 86% 30.27 in 10.0 mi Calm Calm - N/A   Clear
3:33 AM 24.8 °F - 21.2 °F 86% 30.27 in 10.0 mi Calm Calm - N/A   Clear
3:52 AM 23.0 °F - 21.2 °F 93% 30.27 in 10.0 mi Calm Calm - N/A   Clear
4:13 AM 21.2 °F - 21.2 °F 100% 30.27 in 10.0 mi Calm Calm - N/A   Clear
4:33 AM 23.0 °F - 21.2 °F 93% 30.27 in 10.0 mi Calm Calm - N/A   Clear
4:52 AM 23.0 °F - 21.2 °F 93% 30.27 in 10.0 mi Calm Calm - N/A   Clear
5:13 AM 23.0 °F - 21.2 °F 93% 30.27 in 10.0 mi Calm Calm - N/A   Clear
5:33 AM 21.2 °F - 19.4 °F 93% 30.27 in 10.0 mi Calm Calm - N/A   Clear
5:52 AM 19.4 °F - 19.4 °F 100% 30.26 in 10.0 mi Calm Calm - N/A   Clear
6:12 AM 21.2 °F - 19.4 °F 93% 30.26 in 10.0 mi Calm Calm - N/A   Clear
6:33 AM 21.2 °F - 19.4 °F 93% 30.26 in 10.0 mi Calm Calm - N/A   Clear
6:52 AM 21.2 °F 12.6 °F 19.4 °F 93% 30.26 in 10.0 mi ESE 6.9 mph - N/A   Clear
7:12 AM 23.0 °F - 19.4 °F 86% 30.26 in 10.0 mi Calm Calm - N/A   Clear
7:32 AM 21.2 °F - 19.4 °F 93% 30.27 in 10.0 mi Calm Calm - N/A   Clear
7:52 AM 23.0 °F - 21.2 °F 93% 30.27 in 10.0 mi Calm Calm - N/A   Clear
8:12 AM 26.6 °F 20.0 °F 21.2 °F 80% 30.28 in 10.0 mi SSE 5.8 mph - N/A   Clear
8:32 AM 28.4 °F 23.3 °F 24.8 °F 86% 30.28 in 10.0 mi SE 4.6 mph - N/A   Clear
8:53 AM 30.2 °F 24.3 °F 24.8 °F 80% 30.29 in 10.0 mi SE 5.8 mph - N/A   Clear
9:12 AM 30.2 °F 23.4 °F 24.8 °F 80% 30.29 in 10.0 mi SE 6.9 mph - N/A   Clear
9:32 AM 32.0 °F 25.6 °F 24.8 °F 75% 30.29 in 10.0 mi SSE 6.9 mph - N/A   Clear
9:53 AM 33.8 °F 28.6 °F 26.6 °F 75% 30.29 in 10.0 mi SE 5.8 mph - N/A   Clear
10:12 AM 33.8 °F 26.4 °F 24.8 °F 70% 30.29 in 10.0 mi SE 9.2 mph - N/A   Clear
10:32 AM 33.8 °F 26.4 °F 24.8 °F 70% 30.29 in 10.0 mi SE 9.2 mph - N/A   Clear
10:53 AM 35.6 °F 29.2 °F 24.8 °F 65% 30.29 in 10.0 mi SE 8.1 mph - N/A   Clear
11:12 AM 35.6 °F 28.0 °F 24.8 °F 65% 30.29 in 10.0 mi SE 10.4 mph - N/A   Clear
11:32 AM 35.6 °F 28.0 °F 24.8 °F 65% 30.30 in 10.0 mi SE 10.4 mph - N/A   Clear
11:53 AM 37.4 °F 30.8 °F 26.6 °F 65% 30.29 in 10.0 mi SE 9.2 mph - N/A   Clear
12:12 PM 37.4 °F 32.8 °F 24.8 °F 60% 30.29 in 10.0 mi SE 5.8 mph - N/A   Clear
12:32 PM 37.4 °F 30.8 °F 24.8 °F 60% 30.29 in 10.0 mi ESE 9.2 mph - N/A   Clear
12:53 PM 39.2 °F 34.2 °F 24.8 °F 56% 30.29 in 10.0 mi ESE 6.9 mph - N/A   Clear
1:12 PM 39.2 °F 34.2 °F 24.8 °F 56% 30.29 in 10.0 mi SE 6.9 mph - N/A   Clear
1:32 PM 39.2 °F 35.0 °F 24.8 °F 56% 30.28 in 10.0 mi SE 5.8 mph - N/A   Clear
1:53 PM 41.0 °F 35.8 °F 26.6 °F 57% 30.28 in 10.0 mi ESE 8.1 mph - N/A   Clear
2:12 PM 39.2 °F 34.2 °F 26.6 °F 61% 30.27 in 10.0 mi SE 6.9 mph - N/A   Clear
2:32 PM 41.0 °F 35.2 °F 26.6 °F 57% 30.27 in 10.0 mi ESE 9.2 mph - N/A   Clear
2:53 PM 41.0 °F 35.8 °F 26.6 °F 57% 30.26 in 10.0 mi SE 8.1 mph - N/A   Clear
3:12 PM 42.8 °F 38.0 °F 26.6 °F 53% 30.26 in 10.0 mi SE 8.1 mph - N/A   Clear
3:32 PM 42.8 °F - 26.6 °F 53% 30.26 in 10.0 mi Calm Calm - N/A   Clear
3:53 PM 42.8 °F 38.0 °F 28.4 °F 57% 30.25 in 10.0 mi SE 8.1 mph - N/A   Clear
4:12 PM 42.8 °F 40.1 °F 26.6 °F 53% 30.25 in 10.0 mi East 4.6 mph - N/A   Clear
4:32 PM 42.8 °F 39.3 °F 26.6 °F 53% 30.25 in 10.0 mi SE 5.8 mph - N/A   Clear
4:53 PM 42.8 °F 40.1 °F 26.6 °F 53% 30.24 in 10.0 mi ESE 4.6 mph - N/A   Clear
5:13 PM 42.8 °F 38.0 °F 26.6 °F 53% 30.24 in 10.0 mi SE 8.1 mph - N/A   Clear
5:32 PM 42.8 °F 38.6 °F 28.4 °F 57% 30.24 in 10.0 mi SE 6.9 mph - N/A   Clear
5:53 PM 41.0 °F 35.2 °F 26.6 °F 57% 30.24 in 10.0 mi ESE 9.2 mph - N/A   Clear
6:13 PM 41.0 °F 34.7 °F 26.6 °F 57% 30.24 in 10.0 mi ESE 10.4 mph - N/A   Clear
6:32 PM 39.2 °F 33.6 °F 26.6 °F 61% 30.24 in 10.0 mi ESE 8.1 mph - N/A   Clear
6:53 PM 39.2 °F 34.2 °F 26.6 °F 61% 30.25 in 10.0 mi ESE 6.9 mph - N/A   Clear
7:13 PM 37.4 °F 33.8 °F 26.6 °F 65% 30.25 in 10.0 mi ESE 4.6 mph - N/A   Clear
7:32 PM 37.4 °F 33.8 °F 26.6 °F 65% 30.26 in 10.0 mi ESE 4.6 mph - N/A   Clear
7:53 PM 33.8 °F 29.6 °F 26.6 °F 75% 30.26 in 10.0 mi ESE 4.6 mph - N/A   Clear
8:13 PM 33.8 °F 28.6 °F 26.6 °F 75% 30.26 in 10.0 mi ESE 5.8 mph - N/A   Clear
8:32 PM 33.8 °F 28.6 °F 28.4 °F 81% 30.27 in 10.0 mi SE 5.8 mph - N/A   Clear
8:53 PM 33.8 °F 30.8 °F 28.4 °F 81% 30.28 in 10.0 mi ESE 3.5 mph - N/A   Clear
9:13 PM 30.2 °F 26.7 °F 28.4 °F 93% 30.28 in 10.0 mi ESE 3.5 mph - N/A   Clear
9:32 PM 32.0 °F 28.7 °F 28.4 °F 87% 30.29 in 10.0 mi ESE 3.5 mph - N/A   Clear
9:53 PM 30.2 °F 26.7 °F 28.4 °F 93% 30.30 in 10.0 mi ESE 3.5 mph - N/A   Clear
10:13 PM 30.2 °F 24.3 °F 26.6 °F 86% 30.30 in 10.0 mi ESE 5.8 mph - N/A   Clear
10:32 PM 30.2 °F 22.6 °F 26.6 °F 86% 30.29 in 10.0 mi ESE 8.1 mph - N/A   Clear
10:53 PM 30.2 °F 25.4 °F 26.6 °F 86% 30.29 in 10.0 mi ESE 4.6 mph - N/A   Clear
11:12 PM 30.2 °F 23.4 °F 26.6 °F 86% 30.29 in 10.0 mi ESE 6.9 mph - N/A   Clear
11:32 PM 28.4 °F 21.2 °F 26.6 °F 93% 30.28 in 10.0 mi ESE 6.9 mph - N/A   Scattered Clouds
11:53 PM 30.2 °F 23.4 °F 26.6 °F 86% 30.28 in 10.0 mi ESE 6.9 mph - N/A   Clear